This is the latest recevied weather packets stored in our database for station/object KM4KMS. If no packets are shown the sender has not sent any weather packets the latest 10 day(s).
| Time | Temp. | Humidity | Pressure | Rain* | Wind** | Luminosity | Snow |
|---|---|---|---|---|---|---|---|
| 1778023130 | 16.11° C | 93% | 1005.9 hPa | 7.87 mm | - | 10 W/m² | - |
| 1778022828 | 16.67° C | 91% | 1006 hPa | 4.83 mm | - | 10 W/m² | - |
| 1778022526 | 16.67° C | 89% | 1006.7 hPa | 4.32 mm | - | 8 W/m² | - |
| 1778022223 | 17.22° C | 86% | 1006.5 hPa | 6.1 mm | - | 10 W/m² | - |
| 1778021919 | 17.22° C | 88% | 1006.7 hPa | 9.65 mm | - | 14 W/m² | - |
| 1778021617 | 17.22° C | 87% | 1006.8 hPa | 4.32 mm | - | 11 W/m² | - |
| 1778021311 | 17.78° C | 86% | 1006.9 hPa | 3.05 mm | - | 13 W/m² | - |
| 1778021010 | 17.78° C | 87% | 1006.6 hPa | 1.78 mm | - | 11 W/m² | - |
| 1778020707 | 17.78° C | 86% | 1006.8 hPa | 0 mm | - | 16 W/m² | - |
| 1778020404 | 17.78° C | 86% | 1006.6 hPa | 0 mm | - | 13 W/m² | - |
| 1778020099 | 17.78° C | 88% | 1006.5 hPa | 0 mm | - | 26 W/m² | - |
| 1778019795 | 17.78° C | 88% | 1006.1 hPa | 0 mm | - | 40 W/m² | - |
| 1778019493 | 17.78° C | 90% | 1006.5 hPa | 0 mm | - | 55 W/m² | - |
| 1778019190 | 17.78° C | 92% | 1006.3 hPa | 0 mm | - | 67 W/m² | - |
| 1778018886 | 17.22° C | 91% | 1006.3 hPa | 0 mm | - | 56 W/m² | - |
| 1778018584 | 17.22° C | 92% | 1006.7 hPa | 0 mm | - | 29 W/m² | - |
| 1778018282 | 17.22° C | 92% | 1006.5 hPa | 0 mm | - | 34 W/m² | - |
| 1778017979 | 17.22° C | 91% | 1006.6 hPa | 0 mm | - | 28 W/m² | - |
| 1778017677 | 17.22° C | 91% | 1006.6 hPa | 0 mm | - | 35 W/m² | - |
| 1778017374 | 17.78° C | 91% | 1006.6 hPa | 0 mm | - | 35 W/m² | - |
| 1778017071 | 17.78° C | 89% | 1006.8 hPa | 0 mm | - | 51 W/m² | - |
| 1778016769 | 17.78° C | 89% | 1007.1 hPa | 0 mm | - | 36 W/m² | - |
| 1778016464 | 17.78° C | 91% | 1006.8 hPa | 0 mm | - | 39 W/m² | - |
| 1778016162 | 17.78° C | 90% | 1007 hPa | 0 mm | - | 46 W/m² | - |
| 1778015858 | 17.78° C | 90% | 1007.1 hPa | 0 mm | - | 79 W/m² | - |
* Rain latest hour (hover to see other rain measurements)
** Current wind speed in m/s (hover to see current wind gust speed)